{"data":{"norad_id":56876,"epoch":"2026-05-25T00:47:46.455648Z","epoch_age_seconds":82433,"freshness":"FRESH","line1":"1 56876U 23083A   26145.03317657  .00000319  00000+0  21125-4 0  9995","line2":"2 56876  43.0072  14.2670 0001544 267.1641  92.9034 15.27579118163307","mean_motion":15.27579118,"eccentricity":0.0001544,"inclination_deg":43.0072,"raan_deg":14.267,"arg_perigee_deg":267.1641,"mean_anomaly_deg":92.9034,"bstar":2.1125e-5,"rev_number":16330,"period_min":94.26680314178,"perigee_km":481.99236952522,"apogee_km":484.11110460722,"semimajor_km":6861.1887370662,"source":"CELESTRAK","updated_at":"2026-05-25T13:38:18.166396Z"}}